RYR14WN EPMO-EGBB

Flight info

Callsign RYR14WN
Flight time 2h 5m
Altitude 34000
Route OLILA L621 GRUDA L23 ASGUL DCT BODLA DCT GARLU/N0437F360 DCT GALSO Q63 ERING L179 LAM L610 HEMEL
Aircraft B738/M-SDE3FGILRWY/SB1

Departure

Time 2026-04-28 19:11
Airport Warsaw Modlin Airport (EPMO)

Arrival

Time 2026-04-28 21:17
Airport Birmingham Airport (EGBB)
Time Latitude Longitude Altitude Speed Heading
2026-04-28 18:36 52.44739 20.65182 354 ft 0 kts 204°
2026-04-28 19:01 52.44746 20.65188 349 ft 4 kts 203°
2026-04-28 19:01 52.44770 20.65207 358 ft 4 kts 219°
2026-04-28 19:01 52.44787 20.65239 359 ft 4 kts 249°
2026-04-28 19:01 52.44791 20.65258 359 ft 0 kts 261°
2026-04-28 19:05 52.44790 20.65248 359 ft 0 kts 261°
2026-04-28 19:05 52.44786 20.65203 357 ft 8 kts 261°
2026-04-28 19:05 52.44773 20.65069 351 ft 15 kts 261°
2026-04-28 19:05 52.44757 20.64896 350 ft 16 kts 261°
2026-04-28 19:06 52.44740 20.64719 355 ft 15 kts 261°
2026-04-28 19:06 52.44730 20.64606 349 ft 15 kts 261°
2026-04-28 19:06 52.44708 20.64386 349 ft 14 kts 261°
2026-04-28 19:06 52.44693 20.64232 349 ft 14 kts 261°
2026-04-28 19:07 52.44678 20.64081 354 ft 13 kts 261°
2026-04-28 19:07 52.44664 20.63937 349 ft 13 kts 262°
2026-04-28 19:07 52.44653 20.63798 351 ft 12 kts 262°
2026-04-28 19:07 52.44641 20.63660 349 ft 12 kts 261°
2026-04-28 19:08 52.44629 20.63527 349 ft 12 kts 269°
2026-04-28 19:08 52.44652 20.63459 353 ft 7 kts 329°
2026-04-28 19:08 52.44696 20.63442 357 ft 7 kts 351°
2026-04-28 19:08 52.44738 20.63431 352 ft 0 kts 351°
2026-04-28 19:09 52.44752 20.63428 358 ft 5 kts 351°
2026-04-28 19:10 52.44818 20.63411 354 ft 13 kts 351°
2026-04-28 19:10 52.44908 20.63396 350 ft 13 kts 358°
2026-04-28 19:10 52.44964 20.63490 348 ft 14 kts 83°
2026-04-28 19:10 52.44990 20.63782 347 ft 54 kts 81°
2026-04-28 19:11 52.45090 20.64836 347 ft 131 kts 81°
2026-04-28 19:11 52.45256 20.66645 481 ft 179 kts 81°
2026-04-28 19:11 52.45440 20.68663 1481 ft 181 kts 76°
2026-04-28 19:11 52.45644 20.70733 2315 ft 192 kts 75°
2026-04-28 19:12 52.45888 20.72970 2972 ft 204 kts 75°
2026-04-28 19:12 52.46194 20.75295 3572 ft 212 kts 64°
2026-04-28 19:12 52.47047 20.77214 3960 ft 218 kts 34°
2026-04-28 19:12 52.48403 20.78111 3981 ft 210 kts
2026-04-28 19:13 52.49818 20.77748 3996 ft 207 kts 335°
2026-04-28 19:13 52.50927 20.76254 4007 ft 212 kts 308°
2026-04-28 19:13 52.51515 20.73923 4174 ft 237 kts 284°
2026-04-28 19:13 52.51760 20.71130 4845 ft 252 kts 280°
2026-04-28 19:14 52.51968 20.68248 5790 ft 255 kts 279°
2026-04-28 19:14 52.52165 20.65387 6782 ft 256 kts 279°
2026-04-28 19:14 52.52367 20.62462 7704 ft 259 kts 279°
2026-04-28 19:14 52.52571 20.59521 8657 ft 259 kts 280°
2026-04-28 19:15 52.52781 20.56571 9622 ft 261 kts 280°
2026-04-28 19:15 52.52995 20.53608 10536 ft 263 kts 281°
2026-04-28 19:15 52.53221 20.50520 10906 ft 285 kts 281°
2026-04-28 19:15 52.53387 20.48271 11077 ft 301 kts 281°
2026-04-28 19:16 52.53724 20.43604 11951 ft 312 kts 281°
2026-04-28 19:16 52.53975 20.40048 12842 ft 314 kts 281°
2026-04-28 19:16 52.54225 20.36478 13784 ft 316 kts 282°
2026-04-28 19:16 52.54478 20.32867 14584 ft 320 kts 282°
2026-04-28 19:17 52.54726 20.29304 15417 ft 322 kts 282°
2026-04-28 19:17 52.54980 20.25640 16336 ft 323 kts 283°
2026-04-28 19:17 52.55233 20.21971 17226 ft 324 kts 283°
2026-04-28 19:17 52.55488 20.18272 18105 ft 327 kts 283°
2026-04-28 19:18 52.55744 20.14551 18903 ft 329 kts 283°
2026-04-28 19:18 52.56001 20.10794 19623 ft 332 kts 283°
2026-04-28 19:18 52.56261 20.06997 20306 ft 336 kts 283°
2026-04-28 19:18 52.56521 20.03157 20987 ft 340 kts 283°
2026-04-28 19:19 52.56783 19.99275 21669 ft 344 kts 283°
2026-04-28 19:19 52.57047 19.95350 22346 ft 347 kts 283°
2026-04-28 19:19 52.57312 19.91385 22994 ft 351 kts 283°
2026-04-28 19:19 52.57578 19.87373 23638 ft 355 kts 283°
2026-04-28 19:20 52.57845 19.83327 24201 ft 358 kts 283°
2026-04-28 19:20 52.58113 19.79241 24751 ft 360 kts 283°
2026-04-28 19:20 52.58381 19.75135 25303 ft 362 kts 283°
2026-04-28 19:20 52.58650 19.70989 25717 ft 368 kts 282°
2026-04-28 19:21 52.58922 19.66777 26165 ft 372 kts 282°
2026-04-28 19:21 52.59194 19.62539 26710 ft 373 kts 282°
2026-04-28 19:21 52.59464 19.58292 27258 ft 375 kts 282°
2026-04-28 19:21 52.59734 19.54015 27760 ft 377 kts 282°
2026-04-28 19:22 52.60005 19.49710 28231 ft 380 kts 281°
2026-04-28 19:22 52.60093 19.48311 28381 ft 380 kts 281°
2026-04-28 19:22 52.60549 19.41021 29153 ft 384 kts 281°
2026-04-28 19:22 52.60729 19.38117 29454 ft 386 kts 281°
2026-04-28 19:23 52.61000 19.33719 29892 ft 387 kts 281°
2026-04-28 19:23 52.61272 19.29295 30271 ft 391 kts 281°
2026-04-28 19:23 52.61542 19.24852 30769 ft 389 kts 281°
2026-04-28 19:23 52.61809 19.20429 31284 ft 387 kts 281°
2026-04-28 19:24 52.62074 19.16014 31682 ft 389 kts 281°
2026-04-28 19:24 52.62339 19.11579 32056 ft 390 kts 281°
2026-04-28 19:24 52.62604 19.07138 32480 ft 390 kts 281°
2026-04-28 19:24 52.62866 19.02691 32925 ft 390 kts 281°
2026-04-28 19:25 52.63119 18.98386 33324 ft 391 kts 281°
2026-04-28 19:25 52.63379 18.93932 33679 ft 392 kts 281°
2026-04-28 19:25 52.63639 18.89453 34024 ft 394 kts 281°
2026-04-28 19:25 52.63898 18.84957 34329 ft 396 kts 281°
2026-04-28 19:26 52.64422 18.75811 34318 ft 403 kts 281°
2026-04-28 19:26 52.64930 18.66699 34316 ft 395 kts 281°
2026-04-28 19:27 52.65435 18.57592 34337 ft 404 kts 280°
2026-04-28 19:27 52.65934 18.48437 34312 ft 397 kts 280°
2026-04-28 19:28 52.66415 18.39471 34333 ft 396 kts 280°
2026-04-28 19:28 52.66900 18.30364 34312 ft 397 kts 280°
2026-04-28 19:29 52.67296 18.22822 34326 ft 399 kts 280°
2026-04-28 19:29 52.67845 18.12216 34335 ft 401 kts 280°
2026-04-28 19:30 52.68311 18.03036 34334 ft 403 kts 280°
2026-04-28 19:30 52.68764 17.93969 34334 ft 404 kts 280°
2026-04-28 19:31 52.69217 17.84741 34332 ft 404 kts 280°
2026-04-28 19:31 52.69663 17.75513 34325 ft 404 kts 279°
2026-04-28 19:32 52.70103 17.66284 34333 ft 404 kts 279°
2026-04-28 19:32 52.70535 17.57047 34336 ft 404 kts 279°
2026-04-28 19:33 52.70962 17.47785 34333 ft 405 kts 279°
2026-04-28 19:33 52.71381 17.38526 34335 ft 405 kts 279°
2026-04-28 19:34 52.71793 17.29267 34306 ft 405 kts 278°
2026-04-28 19:34 52.72197 17.20013 34330 ft 405 kts 278°
2026-04-28 19:35 52.72596 17.10723 34339 ft 406 kts 278°
2026-04-28 19:35 52.72989 17.01411 34335 ft 408 kts 278°
2026-04-28 19:36 52.73369 16.92217 34337 ft 409 kts 278°
2026-04-28 19:36 52.73746 16.82913 34335 ft 409 kts 278°
2026-04-28 19:37 52.74059 16.75047 34330 ft 410 kts 278°
2026-04-28 19:37 52.74485 16.64126 34335 ft 411 kts 278°
2026-04-28 19:38 52.74846 16.54686 34333 ft 413 kts 278°
2026-04-28 19:38 52.75199 16.45213 34333 ft 414 kts 278°
2026-04-28 19:39 52.75546 16.35715 34345 ft 415 kts 278°
2026-04-28 19:39 52.75886 16.26216 34311 ft 415 kts 278°
2026-04-28 19:40 52.76218 16.16699 34330 ft 416 kts 278°
2026-04-28 19:40 52.76403 16.07134 34334 ft 419 kts 274°
2026-04-28 19:41 52.76151 15.97647 34338 ft 422 kts 272°
2026-04-28 19:41 52.75825 15.87966 34334 ft 422 kts 272°
2026-04-28 19:42 52.75530 15.78280 34333 ft 423 kts 272°
2026-04-28 19:42 52.75302 15.70228 34329 ft 423 kts 272°
2026-04-28 19:43 52.74985 15.58873 34341 ft 424 kts 272°
2026-04-28 19:43 52.74707 15.49140 34342 ft 425 kts 272°
2026-04-28 19:44 52.74422 15.39443 34341 ft 426 kts 272°
2026-04-28 19:44 52.74125 15.29662 34323 ft 427 kts 272°
2026-04-28 19:45 52.73820 15.19890 34303 ft 426 kts 272°
2026-04-28 19:45 52.73508 15.10113 34332 ft 427 kts 272°
2026-04-28 19:46 52.73186 15.00306 34346 ft 429 kts 272°
2026-04-28 19:46 52.72861 14.90624 34340 ft 430 kts 272°
2026-04-28 19:47 52.72521 14.80742 34343 ft 432 kts 272°
2026-04-28 19:47 52.72171 14.70850 34345 ft 432 kts 271°
2026-04-28 19:48 52.71813 14.60947 34342 ft 433 kts 271°
2026-04-28 19:48 52.71446 14.51039 34342 ft 433 kts 271°
2026-04-28 19:49 52.71071 14.41136 34339 ft 432 kts 271°
2026-04-28 19:49 52.70689 14.31261 34342 ft 431 kts 271°
2026-04-28 19:50 52.70102 14.16479 34320 ft 431 kts 271°
2026-04-28 19:51 52.69701 14.06626 34342 ft 431 kts 271°
2026-04-28 19:51 52.69297 13.96879 34354 ft 433 kts 271°
2026-04-28 19:52 52.68876 13.86949 34350 ft 435 kts 271°
2026-04-28 19:52 52.68445 13.76976 34345 ft 437 kts 271°
2026-04-28 19:53 52.68004 13.66969 34343 ft 439 kts 271°
2026-04-28 19:53 52.67552 13.56940 34339 ft 439 kts 271°
2026-04-28 19:54 52.67092 13.46891 34341 ft 440 kts 271°
2026-04-28 19:54 52.66624 13.36878 34339 ft 441 kts 271°
2026-04-28 19:55 52.66145 13.26795 34345 ft 442 kts 271°
2026-04-28 19:55 52.65656 13.16696 34346 ft 442 kts 271°
2026-04-28 19:56 52.65159 13.06612 34336 ft 441 kts 271°
2026-04-28 19:56 52.64663 12.96698 34343 ft 442 kts 271°
2026-04-28 19:57 52.64149 12.86606 34344 ft 443 kts 270°
2026-04-28 19:57 52.63624 12.76479 34343 ft 444 kts 270°
2026-04-28 19:58 52.63091 12.66348 34344 ft 445 kts 270°
2026-04-28 19:58 52.62547 12.56195 34325 ft 445 kts 270°
2026-04-28 19:59 52.61994 12.46040 34344 ft 446 kts 270°
2026-04-28 19:59 52.61432 12.35857 34344 ft 448 kts 270°
2026-04-28 20:00 52.60862 12.25712 34353 ft 448 kts 270°
2026-04-28 20:00 52.60275 12.15437 34347 ft 448 kts 270°
2026-04-28 20:01 52.59688 12.05296 34317 ft 448 kts 269°
2026-04-28 20:01 52.59099 11.95272 34342 ft 448 kts 269°
2026-04-28 20:02 52.58491 11.85082 34352 ft 448 kts 269°
2026-04-28 20:02 52.57874 11.74880 34350 ft 448 kts 269°
2026-04-28 20:03 52.57248 11.64683 34349 ft 449 kts 269°
2026-04-28 20:03 52.56612 11.54469 34318 ft 449 kts 269°
2026-04-28 20:04 52.55968 11.44273 34339 ft 449 kts 269°
2026-04-28 20:04 52.55314 11.34063 34347 ft 449 kts 269°
2026-04-28 20:05 52.54652 11.23852 34346 ft 450 kts 269°
2026-04-28 20:05 52.53979 11.13630 34349 ft 450 kts 269°
2026-04-28 20:06 52.53296 11.03362 34387 ft 458 kts 268°
2026-04-28 20:06 52.52958 10.98307 34488 ft 463 kts 268°
2026-04-28 20:06 52.52603 10.93045 34801 ft 463 kts 268°
2026-04-28 20:06 52.52243 10.87803 35264 ft 459 kts 268°
2026-04-28 20:07 52.51884 10.82619 35770 ft 455 kts 268°
2026-04-28 20:07 52.51647 10.79217 36087 ft 452 kts 268°
2026-04-28 20:07 52.51169 10.72360 36331 ft 452 kts 267°
2026-04-28 20:08 52.50574 10.63867 36343 ft 450 kts 267°
2026-04-28 20:08 52.49735 10.52047 36351 ft 448 kts 267°
2026-04-28 20:09 52.49007 10.41913 36341 ft 447 kts 267°
2026-04-28 20:09 52.48268 10.31775 36348 ft 448 kts 266°
2026-04-28 20:10 52.47643 10.23278 36356 ft 448 kts 266°
2026-04-28 20:10 52.46886 10.13109 36349 ft 450 kts 266°
2026-04-28 20:11 52.46122 10.02973 36347 ft 451 kts 266°
2026-04-28 20:11 52.45355 9.92920 36330 ft 452 kts 266°
2026-04-28 20:12 52.44566 9.82690 36347 ft 453 kts 266°
2026-04-28 20:12 52.43767 9.72444 36349 ft 454 kts 266°
2026-04-28 20:13 52.42957 9.62187 36347 ft 454 kts 266°
2026-04-28 20:13 52.42138 9.51925 36321 ft 454 kts 266°
2026-04-28 20:14 52.41310 9.41661 36320 ft 454 kts 266°
2026-04-28 20:14 52.40473 9.31403 36326 ft 454 kts 266°
2026-04-28 20:15 52.39628 9.21169 36317 ft 453 kts 265°
2026-04-28 20:15 52.38776 9.10954 36321 ft 452 kts 265°
2026-04-28 20:16 52.37918 9.00767 36321 ft 451 kts 265°
2026-04-28 20:16 52.37067 8.90782 36306 ft 450 kts 265°
2026-04-28 20:17 52.36194 8.80636 36318 ft 450 kts 265°
2026-04-28 20:17 52.35315 8.70513 36326 ft 450 kts 265°
2026-04-28 20:18 52.34431 8.60447 36323 ft 450 kts 265°
2026-04-28 20:18 52.33532 8.50311 36322 ft 451 kts 265°
2026-04-28 20:19 52.32623 8.40170 36309 ft 451 kts 264°
2026-04-28 20:19 52.31704 8.30012 36330 ft 452 kts 264°
2026-04-28 20:20 52.30775 8.19848 36324 ft 453 kts 264°
2026-04-28 20:20 52.29836 8.09670 36326 ft 453 kts 264°
2026-04-28 20:21 52.28904 7.99667 36309 ft 454 kts 264°
2026-04-28 20:21 52.27944 7.89470 36286 ft 454 kts 264°
2026-04-28 20:22 52.26975 7.79270 36296 ft 454 kts 264°
2026-04-28 20:22 52.25998 7.69083 36300 ft 455 kts 263°
2026-04-28 20:23 52.25012 7.58887 36295 ft 455 kts 263°
2026-04-28 20:23 52.24016 7.48691 36309 ft 455 kts 263°
2026-04-28 20:24 52.23012 7.38509 36284 ft 454 kts 263°
2026-04-28 20:24 52.22000 7.28338 36291 ft 454 kts 263°
2026-04-28 20:25 52.20979 7.18176 36295 ft 454 kts 263°
2026-04-28 20:25 52.19950 7.08015 36291 ft 454 kts 263°
2026-04-28 20:26 52.18935 6.98081 36290 ft 454 kts 263°
2026-04-28 20:26 52.17887 6.87922 36263 ft 455 kts 262°
2026-04-28 20:27 52.16831 6.77770 36278 ft 455 kts 262°
2026-04-28 20:27 52.15765 6.67606 36280 ft 456 kts 262°
2026-04-28 20:28 52.14689 6.57433 36289 ft 456 kts 262°
2026-04-28 20:28 52.13601 6.47243 36285 ft 457 kts 262°
2026-04-28 20:29 52.12503 6.37047 36266 ft 458 kts 262°
2026-04-28 20:29 52.11396 6.26845 36278 ft 458 kts 262°
2026-04-28 20:30 52.10278 6.16633 36266 ft 459 kts 262°
2026-04-28 20:30 52.09149 6.06410 36273 ft 460 kts 261°
2026-04-28 20:31 52.08027 5.96336 36271 ft 460 kts 261°
2026-04-28 20:31 52.06878 5.86097 36252 ft 461 kts 261°
2026-04-28 20:32 52.05720 5.75861 36270 ft 461 kts 261°
2026-04-28 20:32 52.04552 5.65627 36268 ft 461 kts 261°
2026-04-28 20:33 52.03373 5.55372 36272 ft 461 kts 261°
2026-04-28 20:33 52.02193 5.45199 36271 ft 462 kts 261°
2026-04-28 20:34 52.00996 5.34958 36255 ft 462 kts 261°
2026-04-28 20:34 51.99790 5.24715 36268 ft 462 kts 260°
2026-04-28 20:35 51.98574 5.14476 36267 ft 463 kts 260°
2026-04-28 20:35 51.97347 5.04226 36261 ft 463 kts 260°
2026-04-28 20:36 51.96133 4.94155 36261 ft 463 kts 260°
2026-04-28 20:36 51.94887 4.83904 36242 ft 464 kts 260°
2026-04-28 20:37 51.93632 4.73654 36262 ft 464 kts 259°
2026-04-28 20:37 51.92366 4.63395 36266 ft 465 kts 259°
2026-04-28 20:38 51.91091 4.53137 36267 ft 465 kts 259°
2026-04-28 20:38 51.89805 4.42871 36265 ft 465 kts 259°
2026-04-28 20:39 51.88509 4.32603 36267 ft 466 kts 259°
2026-04-28 20:39 51.87204 4.22340 36264 ft 466 kts 259°
2026-04-28 20:40 51.85890 4.12078 36264 ft 466 kts 259°
2026-04-28 20:40 51.84576 4.01898 36268 ft 465 kts 258°
2026-04-28 20:41 51.83268 3.91831 36254 ft 465 kts 258°
2026-04-28 20:41 51.81929 3.81607 36235 ft 465 kts 258°
2026-04-28 20:42 51.80581 3.71381 36248 ft 465 kts 258°
2026-04-28 20:42 51.79214 3.61085 36246 ft 466 kts 258°
2026-04-28 20:43 51.77854 3.50915 36246 ft 467 kts 258°
2026-04-28 20:43 51.76473 3.40660 36248 ft 468 kts 258°
2026-04-28 20:44 51.75082 3.30402 36244 ft 468 kts 257°
2026-04-28 20:44 51.73682 3.20136 36241 ft 469 kts 257°
2026-04-28 20:45 51.72543 3.09778 36257 ft 469 kts 262°
2026-04-28 20:45 51.71713 2.99526 36253 ft 469 kts 263°
2026-04-28 20:46 51.70847 2.89112 36264 ft 469 kts 262°
2026-04-28 20:46 51.69933 2.78702 36262 ft 469 kts 262°
2026-04-28 20:47 51.69005 2.68300 36265 ft 469 kts 262°
2026-04-28 20:47 51.68073 2.57898 36248 ft 469 kts 262°
2026-04-28 20:48 51.67135 2.47501 36252 ft 469 kts 262°
2026-04-28 20:48 51.66180 2.37092 36242 ft 470 kts 262°
2026-04-28 20:49 51.65223 2.26745 36263 ft 471 kts 261°
2026-04-28 20:49 51.64251 2.16313 36263 ft 472 kts 261°
2026-04-28 20:50 51.63266 2.05787 36270 ft 473 kts 262°
2026-04-28 20:50 51.62322 1.95563 36271 ft 473 kts 261°
2026-04-28 20:51 51.61341 1.85071 36270 ft 475 kts 261°
2026-04-28 20:51 51.60346 1.74565 36272 ft 475 kts 261°
2026-04-28 20:52 51.59346 1.64045 36277 ft 476 kts 262°
2026-04-28 20:52 51.59270 1.53432 36294 ft 475 kts 276°
2026-04-28 20:53 51.60091 1.37557 35965 ft 472 kts 275°
2026-04-28 20:53 51.60316 1.32333 35640 ft 465 kts 275°
2026-04-28 20:53 51.60527 1.27155 35267 ft 461 kts 275°
2026-04-28 20:54 51.60732 1.22029 34901 ft 458 kts 275°
2026-04-28 20:54 51.60937 1.16937 34534 ft 455 kts 275°
2026-04-28 20:54 51.61140 1.11870 34152 ft 453 kts 275°
2026-04-28 20:54 51.61341 1.06830 33735 ft 450 kts 275°
2026-04-28 20:55 51.61539 1.01822 33350 ft 447 kts 275°
2026-04-28 20:55 51.61726 0.97027 33016 ft 443 kts 275°
2026-04-28 20:55 51.61916 0.92087 32665 ft 441 kts 275°
2026-04-28 20:55 51.62103 0.87176 32295 ft 439 kts 275°
2026-04-28 20:56 51.62225 0.83937 32094 ft 436 kts 275°
2026-04-28 20:56 51.62464 0.77509 31631 ft 434 kts 275°
2026-04-28 20:56 51.62585 0.74241 31404 ft 432 kts 275°
2026-04-28 20:56 51.62817 0.67868 30956 ft 430 kts 275°
2026-04-28 20:57 51.62989 0.63080 30625 ft 428 kts 275°
2026-04-28 20:57 51.63160 0.58284 30283 ft 432 kts 275°
2026-04-28 20:57 51.63276 0.54992 30035 ft 440 kts 275°
2026-04-28 20:57 51.63450 0.50036 29640 ft 444 kts 275°
2026-04-28 20:58 51.63619 0.45090 29246 ft 441 kts 275°
2026-04-28 20:58 51.63785 0.40172 28855 ft 438 kts 275°
2026-04-28 20:58 51.63947 0.35301 28520 ft 433 kts 275°
2026-04-28 20:58 51.64107 0.30478 28171 ft 430 kts 275°
2026-04-28 20:59 51.64265 0.25695 27813 ft 426 kts 275°
2026-04-28 20:59 51.64419 0.20951 27474 ft 423 kts 275°
2026-04-28 20:59 51.64726 0.16340 27123 ft 417 kts 284°
2026-04-28 20:59 51.65472 0.11876 26786 ft 409 kts 295°
2026-04-28 21:00 51.66596 0.07709 26453 ft 403 kts 300°
2026-04-28 21:00 51.67771 0.03635 26111 ft 400 kts 301°
2026-04-28 21:00 51.69117 -0.00131 25623 ft 395 kts 312°
2026-04-28 21:00 51.70732 -0.03609 25272 ft 394 kts 315°
2026-04-28 21:01 51.72416 -0.07079 24901 ft 392 kts 315°
2026-04-28 21:01 51.74096 -0.10517 24606 ft 389 kts 315°
2026-04-28 21:01 51.75756 -0.13938 24221 ft 387 kts 315°
2026-04-28 21:01 51.77431 -0.17412 23481 ft 396 kts 314°
2026-04-28 21:02 51.79120 -0.20946 22862 ft 399 kts 313°
2026-04-28 21:02 51.80801 -0.24499 22308 ft 396 kts 313°
2026-04-28 21:02 51.82461 -0.28027 21909 ft 391 kts 313°
2026-04-28 21:02 51.84094 -0.31511 21514 ft 388 kts 313°
2026-04-28 21:03 51.85720 -0.34982 21103 ft 386 kts 312°
2026-04-28 21:03 51.87335 -0.38432 20668 ft 384 kts 312°
2026-04-28 21:03 51.88963 -0.41910 19973 ft 391 kts 312°
2026-04-28 21:03 51.90605 -0.45422 19449 ft 392 kts 311°
2026-04-28 21:04 51.92240 -0.48930 19050 ft 388 kts 311°
2026-04-28 21:04 51.93857 -0.52407 18665 ft 384 kts 311°
2026-04-28 21:04 51.95458 -0.55853 18231 ft 382 kts 311°
2026-04-28 21:04 51.97049 -0.59281 17782 ft 378 kts 310°
2026-04-28 21:05 51.98609 -0.62649 17203 ft 370 kts 310°
2026-04-28 21:05 52.00152 -0.65981 16435 ft 369 kts 310°
2026-04-28 21:05 52.01685 -0.69294 15727 ft 365 kts 310°
2026-04-28 21:05 52.03199 -0.72572 15100 ft 361 kts 310°
2026-04-28 21:06 52.04697 -0.75818 14444 ft 357 kts 310°
2026-04-28 21:06 52.06178 -0.79032 13774 ft 353 kts 309°
2026-04-28 21:06 52.07639 -0.82207 13086 ft 349 kts 309°
2026-04-28 21:06 52.09081 -0.85344 12431 ft 345 kts 309°
2026-04-28 21:07 52.10503 -0.88444 11997 ft 334 kts 309°
2026-04-28 21:07 52.11852 -0.91392 11803 ft 318 kts 309°
2026-04-28 21:07 52.13160 -0.94250 11327 ft 314 kts 309°
2026-04-28 21:07 52.14461 -0.97090 10772 ft 313 kts 309°
2026-04-28 21:08 52.15756 -0.99921 10266 ft 310 kts 309°
2026-04-28 21:08 52.16992 -1.02627 9806 ft 306 kts 309°
2026-04-28 21:08 52.18248 -1.05383 9465 ft 301 kts 309°
2026-04-28 21:08 52.19489 -1.08108 9168 ft 298 kts 309°
2026-04-28 21:09 52.20724 -1.10821 8876 ft 298 kts 309°
2026-04-28 21:09 52.21962 -1.13542 8597 ft 301 kts 309°
2026-04-28 21:09 52.23208 -1.16285 8304 ft 300 kts 309°
2026-04-28 21:09 52.24421 -1.18960 7934 ft 294 kts 309°
2026-04-28 21:10 52.25466 -1.21270 7602 ft 288 kts 309°
2026-04-28 21:10 52.26604 -1.23784 7245 ft 282 kts 309°
2026-04-28 21:10 52.27512 -1.26595 6859 ft 281 kts 289°
2026-04-28 21:10 52.28017 -1.29653 6473 ft 277 kts 285°
2026-04-28 21:11 52.28464 -1.32688 6085 ft 273 kts 285°
2026-04-28 21:11 52.28895 -1.35691 5703 ft 270 kts 285°
2026-04-28 21:11 52.29315 -1.38672 5319 ft 268 kts 285°
2026-04-28 21:11 52.29725 -1.41617 4927 ft 265 kts 285°
2026-04-28 21:12 52.30125 -1.44538 4526 ft 263 kts 285°
2026-04-28 21:12 52.30515 -1.47446 4143 ft 261 kts 285°
2026-04-28 21:12 52.30888 -1.50336 3770 ft 259 kts 285°
2026-04-28 21:12 52.31244 -1.53210 3382 ft 258 kts 285°
2026-04-28 21:13 52.31717 -1.56002 2979 ft 252 kts 299°
2026-04-28 21:13 52.32445 -1.58598 2592 ft 251 kts 300°
2026-04-28 21:13 52.33146 -1.61174 2500 ft 243 kts 300°
2026-04-28 21:13 52.34004 -1.63381 2473 ft 216 kts 330°
2026-04-28 21:14 52.35248 -1.64193 2515 ft 180 kts
2026-04-28 21:14 52.36446 -1.64900 2318 ft 191 kts 339°
2026-04-28 21:14 52.37552 -1.66114 2071 ft 190 kts 338°
2026-04-28 21:14 52.38632 -1.67276 1793 ft 181 kts 336°
2026-04-28 21:15 52.39624 -1.68382 1563 ft 168 kts 336°
2026-04-28 21:15 52.40555 -1.69421 1361 ft 156 kts 336°
2026-04-28 21:15 52.41428 -1.70393 1132 ft 151 kts 334°
2026-04-28 21:15 52.42286 -1.71345 964 ft 145 kts 330°
2026-04-28 21:16 52.43094 -1.72276 753 ft 138 kts 332°
2026-04-28 21:16 52.43867 -1.73130 575 ft 133 kts 332°
2026-04-28 21:16 52.44644 -1.73977 360 ft 137 kts 330°
2026-04-28 21:16 52.45354 -1.74768 323 ft 97 kts 326°
2026-04-28 21:17 52.45734 -1.75189 320 ft 36 kts 326°
2026-04-28 21:17 52.45938 -1.75416 315 ft 35 kts 326°
2026-04-28 21:17 52.46094 -1.75587 308 ft 12 kts 326°
2026-04-28 21:17 52.46164 -1.75585 308 ft 11 kts 45°
2026-04-28 21:18 52.46213 -1.75470 305 ft 14 kts 60°
2026-04-28 21:18 52.46169 -1.75352 302 ft 14 kts 139°
2026-04-28 21:18 52.46094 -1.75262 303 ft 13 kts 146°
2026-04-28 21:18 52.46020 -1.75179 306 ft 13 kts 146°
2026-04-28 21:19 52.45947 -1.75099 304 ft 13 kts 146°
2026-04-28 21:19 52.45863 -1.75005 307 ft 17 kts 146°
2026-04-28 21:19 52.45757 -1.74886 309 ft 19 kts 146°
2026-04-28 21:19 52.45652 -1.74769 315 ft 18 kts 146°
2026-04-28 21:20 52.45582 -1.74692 320 ft 10 kts 146°
2026-04-28 21:20 52.45532 -1.74636 322 ft 6 kts 146°
2026-04-28 21:20 52.45501 -1.74590 322 ft 7 kts 121°
2026-04-28 21:20 52.45511 -1.74487 322 ft 12 kts 64°
2026-04-28 21:21 52.45566 -1.74339 321 ft 17 kts 55°
2026-04-28 21:21 52.45632 -1.74178 322 ft 17 kts 56°
2026-04-28 21:21 52.45695 -1.74021 322 ft 16 kts 57°
2026-04-28 21:21 52.45751 -1.73867 321 ft 15 kts 72°
2026-04-28 21:22 52.45720 -1.73707 322 ft 15 kts 118°
2026-04-28 21:22 52.45646 -1.73595 322 ft 14 kts 145°
2026-04-28 21:22 52.45596 -1.73538 322 ft 6 kts 146°
2026-04-28 21:22 52.45572 -1.73511 322 ft 6 kts 146°
2026-04-28 21:23 52.45514 -1.73501 322 ft 8 kts 216°
2026-04-28 21:23 52.45474 -1.73588 320 ft 10 kts 236°
2026-04-28 21:23 52.45435 -1.73685 322 ft 10 kts 236°
2026-04-28 21:23 52.45399 -1.73751 322 ft 4 kts 190°
2026-04-28 21:24 52.45376 -1.73732 322 ft 4 kts 145°
2026-04-28 21:24 52.45355 -1.73708 321 ft 4 kts 146°
2026-04-28 21:24 52.45347 -1.73700 322 ft 0 kts 146°